Location: Allen Lane School
(37.8198°N, 89.7382°W)
Time: 19:34:58
(UTC+00:00)

Cosmos 1833 Rocket - Pass Details

Date: 08 December 2021
Orbit: 831 x 841 km, 71.0° (Epoch: 16 January)

Event Time Altitude Azimuth Distance (km) Brightness Sun altitude
Rises 22:58:56 0° 229° (SW) 3,365 7.7 -4.2°
Reaches altitude 10° 23:01:38 10° 239° (WSW) 2,437 7.0 -4.7°
Maximum altitude 23:06:32 31° 301° (WNW) 1,436 4.4 -5.6°
Drops below altitude 10° 23:11:29 10° 2° (N) 2,455 4.9 -6.4°
Sets 23:14:14 0° 13° (NNE) 3,395 5.5 -6.9°
